This is the latest recevied weather packets stored in our database for station/object KN6CRX-10. If no packets are shown the sender has not sent any weather packets the latest 10 day(s).
| Time | Temp. | Humidity | Pressure | Rain* | Wind** | Luminosity | Snow |
|---|---|---|---|---|---|---|---|
| 1788366639 | 22.78° C | 43% | 1015.9 hPa | 0 mm | - | 516 W/m² | - |
| 1788366339 | 22.22° C | 48% | 1015.9 hPa | 0 mm | - | 258 W/m² | - |
| 1788366035 | 21.67° C | 52% | 1015.7 hPa | 0 mm | - | 220 W/m² | - |
| 1788365735 | 21.67° C | 48% | 1015.7 hPa | 0 mm | - | 229 W/m² | - |
| 1788365430 | 22.22° C | 45% | 1015.7 hPa | 0 mm | - | 130 W/m² | - |
| 1788365126 | 22.22° C | 47% | 1015.6 hPa | 0 mm | - | 57 W/m² | - |
| 1788364821 | 21.11° C | 50% | 1015.9 hPa | 0 mm | - | 237 W/m² | - |
| 1788364514 | 21.11° C | 56% | 1015.7 hPa | 0 mm | - | 239 W/m² | - |
| 1788364213 | 20.56° C | 57% | 1015.6 hPa | 0 mm | - | 186 W/m² | - |
| 1788363909 | 20° C | 55% | 1015.7 hPa | 0 mm | - | 207 W/m² | - |
| 1788363603 | 19.44° C | 59% | 1015.6 hPa | 0 mm | - | 184 W/m² | - |
| 1788363301 | 17.78° C | 64% | 1015.7 hPa | 0 mm | - | 143 W/m² | - |
| 1788362997 | 17.22° C | 64% | 1015.5 hPa | 0 mm | - | 30 W/m² | - |
| 1788362694 | 16.67° C | 69% | 1015.6 hPa | 0 mm | - | 135 W/m² | - |
| 1788362389 | 16.11° C | 69% | 1015.6 hPa | 0 mm | - | 35 W/m² | - |
| 1788362085 | 15.56° C | 72% | 1015.5 hPa | 0 mm | - | 30 W/m² | - |
| 1788361784 | 15.56° C | 75% | 1015.5 hPa | 0 mm | - | 25 W/m² | - |
| 1788361480 | 15° C | 81% | 1015.6 hPa | 0 mm | - | 29 W/m² | - |
| 1788361180 | 14.44° C | 87% | 1015.4 hPa | 0 mm | - | 28 W/m² | - |
| 1788360875 | 14.44° C | 88% | 1015.6 hPa | 0 mm | - | 30 W/m² | - |
| 1788360570 | 14.44° C | 88% | 1015.5 hPa | 0 mm | - | 22 W/m² | - |
| 1788360266 | 13.89° C | 89% | 1015.4 hPa | 0 mm | - | 28 W/m² | - |
| 1788359966 | 13.89° C | 89% | 1015.4 hPa | 0 mm | - | 25 W/m² | - |
| 1788359661 | 13.89° C | 89% | 1015.2 hPa | 0 mm | - | 23 W/m² | - |
| 1788359356 | 13.89° C | 87% | 1015.1 hPa | 0 mm | - | 25 W/m² | - |
* Rain latest hour (hover to see other rain measurements)
** Current wind speed in m/s (hover to see current wind gust speed)